Hourly Data Report for April 24, 2020

MIRAMICHI RCS
NEW BRUNSWICK
Current Station Operator: ECCC - MSC

47°00'34.000" N
65°27'54.000" W
33.00 m
8100989
71744
ACQ

Download Data

Hourly Data (April 2020)
Hourly Data Report for April 24, 2020
TIME
LST
Temp Definition
°C
Dew Point Definition
°C
Rel Hum Definition
%
Precip. Amount Definition
mm

Wind Dir Definition
10's deg

Wind Spd Definition
km/h
Visibility Definition
km
Stn Press Definition
kPa
Hmdx Definition


Wind Chill Definition


Weather Definition


00:00 0.8 -7.4 54 LegendMM 25 13   100.47     LegendNANA
01:00 0.3 -7.4 56 LegendMM 26 13   100.50     LegendNANA
02:00 0.0 -7.5 57 LegendMM 26 12   100.57   -4 LegendNANA
03:00 -0.4 -7.7 58 LegendMM 25 12   100.62   -4 LegendNANA
04:00 -1.0 -7.7 60 LegendMM 27 14   100.63   -5 LegendNANA
05:00 -1.4 -7.9 61 LegendMM 25 10   100.67   -5 LegendNANA
06:00 -2.1 -8.0 64 LegendMM 21 6   100.77   -4 LegendNANA
07:00 0.8 -7.5 54 LegendMM 26 18   100.79     LegendNANA
08:00 1.9 -8.5 46 LegendMM 27 18   100.83     LegendNANA
09:00 3.0 -7.9 45 LegendMM 24 19   100.81     LegendNANA
10:00 4.7 -7.7 40 LegendMM 25 17   100.76     LegendNANA
11:00 6.3 -7.9 35 LegendMM 24 21   100.72     LegendNANA
12:00 8.0 -8.1 31 LegendMM 26 20   100.64     LegendNANA
13:00 9.1 -7.9 29 LegendMM 24 20   100.57     LegendNANA
14:00 10.2 -8.8 25 LegendMM 24 20   100.51     LegendNANA
15:00 11.1 -11.1 20 LegendMM 26 18   100.43     LegendNANA
16:00 11.7 -11.5 19 LegendMM 27 14   100.33     LegendNANA
17:00 11.6 -11.2 19 LegendMM 29 17   100.34     LegendNANA
18:00 11.2 -10.8 20 LegendMM 28 11   100.34     LegendNANA
19:00 9.6 -10.1 24 LegendMM 30 8   100.35     LegendNANA
20:00 6.4 -9.1 32 LegendMM 31 6   100.38     LegendNANA
21:00 4.5 -9.0 37 LegendMM 35 4   100.39     LegendNANA
22:00 1.6 -6.8 54 LegendMM 8 7   100.41     LegendNANA
23:00 2.9 -8.6 43 LegendMM 4 6   100.45     LegendNANA

Notes on Data Quality.

Legend

  • E = Estimated
  • M = Missing
  • NA = Not Available*
  • [empty] = Indicates an unobserved value
Date modified: